Time,TemperatureF,DewpointF,PressureIn,WindDirection,WindDirectionDegrees,WindSpeedMPH,WindSpeedGustMPH,Humidity,HourlyPrecipIn,Conditions,Clouds,dailyrainin,SoftwareType,DateUTC
2013-08-06 00:00:00,79.2,73.9,29.56,SE,146,4.0,12.0,84,0.00,,---,0.00,VWS V14.01,2013-08-06 04:00:00,
2013-08-06 00:01:00,79.2,73.9,29.56,SE,146,4.0,12.0,84,0.00,,---,0.00,VWS V14.01,2013-08-06 04:01:00,
2013-08-06 00:06:00,79.0,74.1,29.56,SSE,167,4.0,9.0,85,0.00,,---,0.00,VWS V14.01,2013-08-06 04:06:00,
2013-08-06 00:11:00,78.9,74.0,29.56,SSE,150,6.0,10.0,85,0.00,,---,0.00,VWS V14.01,2013-08-06 04:11:00,
2013-08-06 00:16:00,78.8,73.9,29.56,SSE,152,6.0,10.0,85,0.00,,---,0.00,VWS V14.01,2013-08-06 04:16:00,
2013-08-06 00:21:00,78.7,74.2,29.56,SE,129,5.0,10.0,86,0.00,,---,0.00,VWS V14.01,2013-08-06 04:21:00,
2013-08-06 00:26:00,78.6,74.1,29.56,SE,140,4.0,10.0,86,0.00,,---,0.00,VWS V14.01,2013-08-06 04:26:00,
2013-08-06 00:30:00,78.5,74.0,29.56,SSE,158,4.0,10.0,86,0.00,,---,0.00,VWS V14.01,2013-08-06 04:30:00,
2013-08-06 00:31:00,78.5,74.0,29.56,SE,134,5.0,6.0,86,0.00,,---,0.00,VWS V14.01,2013-08-06 04:31:00,
2013-08-06 00:36:00,78.4,74.2,29.56,SE,140,6.0,8.0,87,0.00,,---,0.00,VWS V14.01,2013-08-06 04:36:00,
2013-08-06 00:41:00,78.4,74.2,29.56,SSE,148,3.0,8.0,87,0.00,,---,0.00,VWS V14.01,2013-08-06 04:41:00,
2013-08-06 00:46:00,78.2,74.0,29.56,ESE,111,5.0,8.0,87,0.00,,---,0.00,VWS V14.01,2013-08-06 04:46:00,
2013-08-06 00:51:00,78.0,74.2,29.55,East,98,5.0,9.0,88,0.00,,---,0.00,VWS V14.01,2013-08-06 04:51:00,
2013-08-06 00:56:00,77.9,74.1,29.55,SE,136,5.0,9.0,88,0.00,,---,0.00,VWS V14.01,2013-08-06 04:56:00,
2013-08-06 01:00:00,77.7,74.2,29.55,SE,134,4.0,9.0,89,0.00,,---,0.00,VWS V14.01,2013-08-06 05:00:00,
2013-08-06 01:01:00,77.7,74.2,29.55,SE,140,4.0,4.0,89,0.00,,---,0.00,VWS V14.01,2013-08-06 05:01:00,
2013-08-06 01:06:00,77.6,74.1,29.55,SE,140,5.0,7.0,89,0.00,,---,0.00,VWS V14.01,2013-08-06 05:06:00,
2013-08-06 01:11:00,77.6,74.1,29.55,SE,140,2.0,7.0,89,0.00,,---,0.00,VWS V14.01,2013-08-06 05:11:00,
2013-08-06 01:16:00,77.5,74.0,29.55,SE,142,3.0,7.0,89,0.00,,---,0.00,VWS V14.01,2013-08-06 05:16:00,
2013-08-06 01:21:00,77.5,74.3,29.55,ESE,121,3.0,7.0,90,0.00,,---,0.00,VWS V14.01,2013-08-06 05:21:00,
2013-08-06 01:26:00,77.4,74.2,29.55,SE,140,3.0,7.0,90,0.00,,---,0.00,VWS V14.01,2013-08-06 05:26:00,
2013-08-06 01:30:00,77.3,74.1,29.55,SE,126,5.0,7.0,90,0.00,,---,0.00,VWS V14.01,2013-08-06 05:30:00,
2013-08-06 01:31:00,77.3,74.1,29.55,SE,126,4.0,5.0,90,0.00,,---,0.00,VWS V14.01,2013-08-06 05:31:00,
2013-08-06 01:36:00,77.2,74.0,29.55,SE,125,6.0,7.0,90,0.00,,---,0.00,VWS V14.01,2013-08-06 05:36:00,
2013-08-06 01:41:00,77.2,74.4,29.55,SE,140,3.0,8.0,91,0.00,,---,0.00,VWS V14.01,2013-08-06 05:41:00,
2013-08-06 01:46:00,77.2,74.4,29.55,SE,127,3.0,8.0,91,0.00,,---,0.00,VWS V14.01,2013-08-06 05:46:00,
2013-08-06 01:51:00,77.1,74.3,29.55,ESE,111,4.0,8.0,91,0.00,,---,0.00,VWS V14.01,2013-08-06 05:51:00,
2013-08-06 01:56:00,77.0,74.2,29.55,SE,134,5.0,9.0,91,0.00,,---,0.00,VWS V14.01,2013-08-06 05:56:00,
2013-08-06 02:00:00,76.9,74.1,29.55,ESE,105,3.0,9.0,91,0.00,,---,0.00,VWS V14.01,2013-08-06 06:00:00,
2013-08-06 02:01:00,76.8,74.0,29.54,SE,126,2.0,3.0,91,0.00,,---,0.00,VWS V14.01,2013-08-06 06:01:00,
2013-08-06 02:06:00,76.9,74.1,29.54,ESE,122,3.0,8.0,91,0.00,,---,0.00,VWS V14.01,2013-08-06 06:06:00,
2013-08-06 02:11:00,76.8,74.0,29.55,ESE,121,4.0,8.0,91,0.00,,---,0.00,VWS V14.01,2013-08-06 06:11:00,
2013-08-06 02:16:00,76.8,74.3,29.55,East,98,2.0,8.0,92,0.00,,---,0.00,VWS V14.01,2013-08-06 06:16:00,
2013-08-06 02:21:00,76.8,74.3,29.55,SE,128,3.0,8.0,92,0.00,,---,0.00,VWS V14.01,2013-08-06 06:21:00,
2013-08-06 02:26:00,76.8,74.3,29.55,South,169,2.0,8.0,92,0.00,,---,0.00,VWS V14.01,2013-08-06 06:26:00,
2013-08-06 02:30:00,76.8,74.3,29.55,SE,133,3.0,8.0,92,0.00,,---,0.00,VWS V14.01,2013-08-06 06:30:00,
2013-08-06 02:33:00,76.8,74.3,29.54,ESE,115,4.0,4.0,92,0.00,,---,0.00,VWS V14.01,2013-08-06 06:33:00,
2013-08-06 02:38:00,76.8,74.3,29.55,SSE,147,2.0,5.0,92,0.00,,---,0.00,VWS V14.01,2013-08-06 06:38:00,
2013-08-06 02:43:00,77.0,74.5,29.55,SSE,159,1.0,5.0,92,0.00,,---,0.00,VWS V14.01,2013-08-06 06:43:00,
2013-08-06 02:48:00,77.0,74.5,29.54,SE,126,1.0,5.0,92,0.00,,---,0.00,VWS V14.01,2013-08-06 06:48:00,
2013-08-06 02:53:00,77.0,74.5,29.54,ESE,121,3.0,6.0,92,0.00,,---,0.00,VWS V14.01,2013-08-06 06:53:00,
2013-08-06 02:58:00,76.9,74.4,29.53,SE,139,5.0,8.0,92,0.00,,---,0.00,VWS V14.01,2013-08-06 06:58:00,
2013-08-06 03:00:00,76.9,74.4,29.54,South,174,4.0,8.0,92,0.00,,---,0.00,VWS V14.01,2013-08-06 07:00:00,
2013-08-06 03:03:00,77.0,74.5,29.53,SE,144,2.0,5.0,92,0.00,,---,0.00,VWS V14.01,2013-08-06 07:03:00,
2013-08-06 03:08:00,76.9,74.4,29.53,SE,126,3.0,6.0,92,0.00,,---,0.00,VWS V14.01,2013-08-06 07:08:00,
2013-08-06 03:13:00,76.9,74.4,29.52,ESE,119,4.0,9.0,92,0.00,,---,0.00,VWS V14.01,2013-08-06 07:13:00,
2013-08-06 03:18:00,76.8,74.3,29.52,SE,135,6.0,9.0,92,0.00,,---,0.00,VWS V14.01,2013-08-06 07:18:00,
2013-08-06 03:23:00,76.7,74.2,29.52,SE,137,2.0,9.0,92,0.00,,---,0.00,VWS V14.01,2013-08-06 07:23:00,
2013-08-06 03:28:00,76.7,74.5,29.52,ESE,116,4.0,9.0,93,0.00,,---,0.00,VWS V14.01,2013-08-06 07:28:00,
2013-08-06 03:30:00,76.6,74.4,29.52,SE,139,3.0,9.0,93,0.00,,---,0.00,VWS V14.01,2013-08-06 07:30:00,
2013-08-06 03:33:00,76.6,74.4,29.52,SSE,156,4.0,5.0,93,0.00,,---,0.00,VWS V14.01,2013-08-06 07:33:00,
2013-08-06 03:38:00,76.6,74.4,29.52,SSE,151,3.0,7.0,93,0.00,,---,0.00,VWS V14.01,2013-08-06 07:38:00,
2013-08-06 03:43:00,76.6,74.4,29.52,SE,145,6.0,7.0,93,0.00,,---,0.00,VWS V14.01,2013-08-06 07:43:00,
2013-08-06 03:48:00,76.5,74.3,29.51,SSE,167,4.0,7.0,93,0.00,,---,0.00,VWS V14.01,2013-08-06 07:48:00,
2013-08-06 03:53:00,76.5,74.3,29.51,South,172,6.0,7.0,93,0.00,,---,0.00,VWS V14.01,2013-08-06 07:53:00,
2013-08-06 03:58:00,76.5,74.3,29.52,SSE,165,3.0,7.0,93,0.00,,---,0.00,VWS V14.01,2013-08-06 07:58:00,
2013-08-06 04:00:00,76.5,74.3,29.52,South,180,4.0,7.0,93,0.00,,---,0.00,VWS V14.01,2013-08-06 08:00:00,
2013-08-06 04:03:00,76.5,74.3,29.52,SSE,166,4.0,5.0,93,0.00,,---,0.00,VWS V14.01,2013-08-06 08:03:00,
2013-08-06 04:08:00,76.5,74.3,29.52,SSW,209,2.0,5.0,93,0.00,,---,0.00,VWS V14.01,2013-08-06 08:08:00,
2013-08-06 04:13:00,76.5,74.3,29.52,South,180,6.0,6.0,93,0.00,,---,0.00,VWS V14.01,2013-08-06 08:13:00,
2013-08-06 04:18:00,76.4,74.6,29.52,SSE,148,4.0,6.0,94,0.00,,---,0.00,VWS V14.01,2013-08-06 08:18:00,
2013-08-06 04:23:00,76.3,74.4,29.52,SSE,150,3.0,8.0,94,0.00,,---,0.00,VWS V14.01,2013-08-06 08:23:00,
2013-08-06 04:28:00,76.4,74.6,29.52,SSE,168,5.0,8.0,94,0.00,,---,0.00,VWS V14.01,2013-08-06 08:28:00,
2013-08-06 04:30:00,76.4,74.6,29.52,SSE,151,5.0,8.0,94,0.00,,---,0.00,VWS V14.01,2013-08-06 08:30:00,
2013-08-06 04:33:00,76.4,74.6,29.51,SSE,153,5.0,5.0,94,0.00,,---,0.00,VWS V14.01,2013-08-06 08:33:00,
2013-08-06 04:38:00,76.3,74.4,29.52,SSE,157,5.0,6.0,94,0.00,,---,0.00,VWS V14.01,2013-08-06 08:38:00,
2013-08-06 04:43:00,76.4,74.6,29.51,SSE,159,6.0,6.0,94,0.00,,---,0.00,VWS V14.01,2013-08-06 08:43:00,
2013-08-06 04:48:00,76.4,74.6,29.52,SE,141,2.0,7.0,94,0.00,,---,0.00,VWS V14.01,2013-08-06 08:48:00,
2013-08-06 04:53:00,76.4,74.6,29.52,SSE,155,2.0,7.0,94,0.00,,---,0.00,VWS V14.01,2013-08-06 08:53:00,
2013-08-06 04:58:00,76.5,74.7,29.52,SSE,150,4.0,7.0,94,0.00,,---,0.00,VWS V14.01,2013-08-06 08:58:00,
2013-08-06 05:00:00,76.4,74.6,29.52,SSE,157,5.0,7.0,94,0.00,,---,0.00,VWS V14.01,2013-08-06 09:00:00,
2013-08-06 05:03:00,76.5,74.7,29.52,SE,126,4.0,5.0,94,0.00,,---,0.00,VWS V14.01,2013-08-06 09:03:00,
2013-08-06 05:08:00,76.4,74.6,29.52,SE,144,3.0,5.0,94,0.00,,---,0.00,VWS V14.01,2013-08-06 09:08:00,
2013-08-06 05:13:00,76.5,74.7,29.52,ESE,119,4.0,5.0,94,0.00,,---,0.00,VWS V14.01,2013-08-06 09:13:00,
2013-08-06 05:18:00,76.5,74.7,29.52,SSE,159,3.0,5.0,94,0.00,,---,0.00,VWS V14.01,2013-08-06 09:18:00,
2013-08-06 05:23:00,76.5,74.7,29.52,SSE,165,2.0,5.0,94,0.00,,---,0.00,VWS V14.01,2013-08-06 09:23:00,
2013-08-06 05:28:00,76.6,74.8,29.52,SSW,193,2.0,5.0,94,0.00,,---,0.00,VWS V14.01,2013-08-06 09:28:00,
2013-08-06 05:30:00,76.6,74.8,29.52,SSE,153,2.0,5.0,94,0.00,,---,0.00,VWS V14.01,2013-08-06 09:30:00,
2013-08-06 05:33:00,76.6,74.8,29.53,SSE,159,3.0,5.0,94,0.00,,---,0.00,VWS V14.01,2013-08-06 09:33:00,
2013-08-06 05:38:00,76.6,74.8,29.52,SSE,154,4.0,5.0,94,0.00,,---,0.00,VWS V14.01,2013-08-06 09:38:00,
2013-08-06 05:43:00,76.6,74.8,29.52,SSW,202,2.0,5.0,94,0.00,,---,0.00,VWS V14.01,2013-08-06 09:43:00,
2013-08-06 05:48:00,76.6,74.8,29.52,South,178,3.0,5.0,94,0.00,,---,0.00,VWS V14.01,2013-08-06 09:48:00,
2013-08-06 05:53:00,76.7,74.8,29.52,SE,134,2.0,5.0,94,0.00,,---,0.00,VWS V14.01,2013-08-06 09:53:00,
2013-08-06 05:58:00,76.8,74.9,29.52,SE,127,1.0,5.0,94,0.00,,---,0.00,VWS V14.01,2013-08-06 09:58:00,
2013-08-06 06:00:00,76.8,74.9,29.52,SE,144,2.0,5.0,94,0.00,,---,0.00,VWS V14.01,2013-08-06 10:00:00,
2013-08-06 06:03:00,76.8,74.9,29.53,SW,236,2.0,2.0,94,0.00,,---,0.00,VWS V14.01,2013-08-06 10:03:00,
2013-08-06 06:08:00,76.8,74.6,29.53,SSE,154,4.0,4.0,93,0.00,,---,0.00,VWS V14.01,2013-08-06 10:08:00,
2013-08-06 06:13:00,76.8,74.6,29.52,South,178,3.0,5.0,93,0.00,,---,0.00,VWS V14.01,2013-08-06 10:13:00,
2013-08-06 06:18:00,76.8,74.9,29.52,SE,131,3.0,5.0,94,0.00,,---,0.00,VWS V14.01,2013-08-06 10:18:00,
2013-08-06 06:23:00,76.8,74.9,29.52,ESE,110,3.0,5.0,94,0.00,,---,0.00,VWS V14.01,2013-08-06 10:23:00,
2013-08-06 06:28:00,76.8,74.9,29.52,SSE,151,1.0,5.0,94,0.00,,---,0.00,VWS V14.01,2013-08-06 10:28:00,
2013-08-06 06:30:00,76.8,74.9,29.52,SSE,163,2.0,5.0,94,0.00,,---,0.00,VWS V14.01,2013-08-06 10:30:00,
2013-08-06 06:33:00,76.8,74.9,29.52,South,178,1.0,2.0,94,0.00,,---,0.00,VWS V14.01,2013-08-06 10:33:00,
2013-08-06 06:38:00,76.8,74.9,29.53,SSE,162,2.0,2.0,94,0.00,,---,0.00,VWS V14.01,2013-08-06 10:38:00,
2013-08-06 06:43:00,76.9,75.1,29.53,SE,132,1.0,3.0,94,0.00,,---,0.00,VWS V14.01,2013-08-06 10:43:00,
2013-08-06 06:48:00,76.9,75.1,29.53,SSE,154,2.0,3.0,94,0.00,,---,0.00,VWS V14.01,2013-08-06 10:48:00,
2013-08-06 06:53:00,76.9,75.1,29.53,South,185,2.0,3.0,94,0.00,,---,0.00,VWS V14.01,2013-08-06 10:53:00,
2013-08-06 06:58:00,76.9,75.1,29.54,SSE,151,2.0,3.0,94,0.00,,---,0.00,VWS V14.01,2013-08-06 10:58:00,
2013-08-06 07:00:00,76.9,75.1,29.54,SSE,156,1.0,3.0,94,0.00,,---,0.00,VWS V14.01,2013-08-06 11:00:00,
2013-08-06 07:03:00,77.0,75.1,29.54,SSE,155,1.0,1.0,94,0.00,,---,0.00,VWS V14.01,2013-08-06 11:03:00,
2013-08-06 07:08:00,77.1,74.9,29.54,SSW,198,2.0,3.0,93,0.00,,---,0.00,VWS V14.01,2013-08-06 11:08:00,
2013-08-06 07:13:00,77.1,74.9,29.54,South,178,1.0,3.0,93,0.00,,---,0.00,VWS V14.01,2013-08-06 11:13:00,
2013-08-06 07:18:00,77.1,74.9,29.54,SSE,161,4.0,4.0,93,0.00,,---,0.00,VWS V14.01,2013-08-06 11:18:00,
2013-08-06 07:23:00,77.1,74.9,29.54,SSE,166,2.0,4.0,93,0.00,,---,0.00,VWS V14.01,2013-08-06 11:23:00,
2013-08-06 07:28:00,77.2,75.0,29.54,South,175,2.0,4.0,93,0.00,,---,0.00,VWS V14.01,2013-08-06 11:28:00,
2013-08-06 07:30:00,77.3,75.1,29.54,SSE,152,0.0,4.0,93,0.00,,---,0.00,VWS V14.01,2013-08-06 11:30:00,
2013-08-06 07:33:00,77.3,75.1,29.55,SSE,151,2.0,3.0,93,0.00,,---,0.00,VWS V14.01,2013-08-06 11:33:00,
2013-08-06 07:38:00,77.4,75.2,29.55,South,171,3.0,3.0,93,0.00,,---,0.00,VWS V14.01,2013-08-06 11:38:00,
2013-08-06 07:43:00,77.3,75.1,29.55,SE,140,2.0,5.0,93,0.00,,---,0.00,VWS V14.01,2013-08-06 11:43:00,
2013-08-06 07:48:00,77.3,75.1,29.55,SSW,205,3.0,5.0,93,0.00,,---,0.00,VWS V14.01,2013-08-06 11:48:00,
2013-08-06 07:53:00,77.5,75.3,29.55,SSE,147,2.0,5.0,93,0.00,,---,0.00,VWS V14.01,2013-08-06 11:53:00,
2013-08-06 07:58:00,77.6,75.4,29.55,SSE,163,2.0,5.0,93,0.00,,---,0.00,VWS V14.01,2013-08-06 11:58:00,
2013-08-06 08:00:00,77.7,75.2,29.56,South,182,1.0,5.0,92,0.00,,---,0.00,VWS V14.01,2013-08-06 12:00:00,
2013-08-06 08:03:00,77.7,75.2,29.56,SSE,161,2.0,2.0,92,0.00,,---,0.00,VWS V14.01,2013-08-06 12:03:00,
2013-08-06 08:08:00,77.7,75.2,29.56,South,170,1.0,3.0,92,0.00,,---,0.00,VWS V14.01,2013-08-06 12:08:00,
2013-08-06 08:13:00,77.8,75.3,29.56,SE,129,0.0,3.0,92,0.00,,---,0.00,VWS V14.01,2013-08-06 12:13:00,
2013-08-06 08:18:00,77.9,75.4,29.56,SSE,159,2.0,3.0,92,0.00,,---,0.00,VWS V14.01,2013-08-06 12:18:00,
2013-08-06 08:23:00,77.9,75.4,29.56,SSE,157,1.0,3.0,92,0.00,,---,0.00,VWS V14.01,2013-08-06 12:23:00,
2013-08-06 08:28:00,78.0,75.2,29.56,SE,141,1.0,3.0,91,0.00,,---,0.00,VWS V14.01,2013-08-06 12:28:00,
2013-08-06 08:30:00,78.1,75.3,29.57,SE,140,0.0,3.0,91,0.00,,---,0.00,VWS V14.01,2013-08-06 12:30:00,
2013-08-06 08:33:00,78.1,75.3,29.57,SE,126,1.0,2.0,91,0.00,,---,0.00,VWS V14.01,2013-08-06 12:33:00,
2013-08-06 08:38:00,78.2,75.4,29.57,SSE,166,1.0,2.0,91,0.00,,---,0.00,VWS V14.01,2013-08-06 12:38:00,
2013-08-06 08:43:00,78.5,75.3,29.57,South,182,1.0,2.0,90,0.00,,---,0.00,VWS V14.01,2013-08-06 12:43:00,
2013-08-06 08:48:00,78.8,75.6,29.57,South,169,0.0,2.0,90,0.00,,---,0.00,VWS V14.01,2013-08-06 12:48:00,
2013-08-06 08:53:00,79.0,75.5,29.57,South,173,0.0,2.0,89,0.00,,---,0.00,VWS V14.01,2013-08-06 12:53:00,
2013-08-06 08:58:00,79.2,75.7,29.57,SE,136,1.0,2.0,89,0.00,,---,0.00,VWS V14.01,2013-08-06 12:58:00,
2013-08-06 09:00:00,79.3,75.4,29.57,SSW,208,2.0,3.0,88,0.00,,---,0.00,VWS V14.01,2013-08-06 13:00:00,
2013-08-06 09:03:00,79.3,75.4,29.57,SSE,161,2.0,2.0,88,0.00,,---,0.00,VWS V14.01,2013-08-06 13:03:00,
2013-08-06 09:08:00,79.3,75.4,29.57,SW,219,3.0,3.0,88,0.00,,---,0.00,VWS V14.01,2013-08-06 13:08:00,
2013-08-06 09:13:00,79.4,75.5,29.58,SE,142,2.0,3.0,88,0.00,,---,0.00,VWS V14.01,2013-08-06 13:13:00,
2013-08-06 09:18:00,79.4,75.5,29.58,South,182,2.0,3.0,88,0.00,,---,0.00,VWS V14.01,2013-08-06 13:18:00,
2013-08-06 09:23:00,79.5,75.3,29.58,South,180,2.0,4.0,87,0.00,,---,0.00,VWS V14.01,2013-08-06 13:23:00,
2013-08-06 09:28:00,79.4,75.2,29.58,SW,220,1.0,4.0,87,0.00,,---,0.00,VWS V14.01,2013-08-06 13:28:00,
2013-08-06 09:30:00,79.5,75.3,29.58,SSW,194,2.0,4.0,87,0.00,,---,0.00,VWS V14.01,2013-08-06 13:30:00,
2013-08-06 09:33:00,79.6,75.7,29.58,SSE,167,3.0,4.0,88,0.00,,---,0.00,VWS V14.01,2013-08-06 13:33:00,
2013-08-06 09:38:00,79.8,75.6,29.58,SE,130,2.0,4.0,87,0.00,,---,0.00,VWS V14.01,2013-08-06 13:38:00,
2013-08-06 09:43:00,79.8,75.6,29.58,SSE,153,3.0,4.0,87,0.00,,---,0.00,VWS V14.01,2013-08-06 13:43:00,
2013-08-06 09:48:00,80.0,76.1,29.58,ESE,104,1.0,4.0,88,0.00,,---,0.00,VWS V14.01,2013-08-06 13:48:00,
2013-08-06 09:53:00,80.2,76.0,29.58,SE,137,2.0,5.0,87,0.00,,---,0.00,VWS V14.01,2013-08-06 13:53:00,
2013-08-06 09:58:00,80.1,75.9,29.58,South,169,1.0,5.0,87,0.00,,---,0.00,VWS V14.01,2013-08-06 13:58:00,
2013-08-06 10:00:00,80.1,75.9,29.58,SE,135,3.0,5.0,87,0.00,,---,0.00,VWS V14.01,2013-08-06 14:00:00,
2013-08-06 10:03:00,80.0,75.8,29.58,SE,140,3.0,4.0,87,0.00,,---,0.00,VWS V14.01,2013-08-06 14:03:00,
2013-08-06 10:08:00,79.8,75.9,29.58,SE,126,2.0,4.0,88,0.00,,---,0.00,VWS V14.01,2013-08-06 14:08:00,
2013-08-06 10:13:00,79.7,75.8,29.58,ESE,108,1.0,4.0,88,0.00,,---,0.00,VWS V14.01,2013-08-06 14:13:00,
2013-08-06 10:18:00,79.7,75.8,29.58,SE,140,4.0,4.0,88,0.00,,---,0.00,VWS V14.01,2013-08-06 14:18:00,
2013-08-06 10:23:00,79.7,75.8,29.59,SSE,150,2.0,4.0,88,0.00,,---,0.00,VWS V14.01,2013-08-06 14:23:00,
2013-08-06 10:28:00,79.7,75.8,29.59,SE,143,2.0,4.0,88,0.00,,---,0.00,VWS V14.01,2013-08-06 14:28:00,
2013-08-06 10:30:00,79.7,75.8,29.59,ESE,112,1.0,4.0,88,0.00,,---,0.00,VWS V14.01,2013-08-06 14:30:00,
2013-08-06 10:33:00,79.8,75.9,29.59,ENE,76,1.0,2.0,88,0.00,,---,0.00,VWS V14.01,2013-08-06 14:33:00,
2013-08-06 10:38:00,80.1,76.2,29.59,South,169,3.0,3.0,88,0.00,,---,0.00,VWS V14.01,2013-08-06 14:38:00,
2013-08-06 10:43:00,80.3,76.1,29.59,SSE,157,0.0,4.0,87,0.00,,---,0.00,VWS V14.01,2013-08-06 14:43:00,
2013-08-06 10:48:00,80.4,76.2,29.59,SSE,165,2.0,4.0,87,0.00,,---,0.00,VWS V14.01,2013-08-06 14:48:00,
2013-08-06 10:53:00,80.5,75.9,29.59,South,186,3.0,4.0,86,0.00,,---,0.00,VWS V14.01,2013-08-06 14:53:00,
2013-08-06 10:58:00,80.5,75.9,29.59,SSE,157,2.0,4.0,86,0.00,,---,0.00,VWS V14.01,2013-08-06 14:58:00,
2013-08-06 11:00:00,80.5,76.3,29.59,SE,140,2.0,4.0,87,0.00,,---,0.00,VWS V14.01,2013-08-06 15:00:00,
2013-08-06 11:03:00,80.4,76.2,29.59,SE,140,1.0,3.0,87,0.00,,---,0.00,VWS V14.01,2013-08-06 15:03:00,
2013-08-06 11:08:00,80.1,76.2,29.59,ESE,122,1.0,3.0,88,0.00,,---,0.00,VWS V14.01,2013-08-06 15:08:00,
2013-08-06 11:13:00,80.0,76.1,29.60,ESE,109,1.0,3.0,88,0.00,,---,0.00,VWS V14.01,2013-08-06 15:13:00,
2013-08-06 11:18:00,80.1,76.2,29.60,SW,227,1.0,4.0,88,0.00,,---,0.00,VWS V14.01,2013-08-06 15:18:00,
2013-08-06 11:23:00,80.3,76.1,29.60,SW,236,0.0,4.0,87,0.00,,---,0.00,VWS V14.01,2013-08-06 15:23:00,
2013-08-06 11:28:00,80.7,76.1,29.59,SSW,202,1.0,4.0,86,0.00,,---,0.00,VWS V14.01,2013-08-06 15:28:00,
2013-08-06 11:30:00,81.0,76.4,29.59,NNE,25,0.0,4.0,86,0.00,,---,0.00,VWS V14.01,2013-08-06 15:30:00,
2013-08-06 11:33:00,81.2,76.6,29.59,SSE,163,1.0,2.0,86,0.00,,---,0.00,VWS V14.01,2013-08-06 15:33:00,
2013-08-06 11:38:00,81.3,76.4,29.59,SSE,157,1.0,3.0,85,0.00,,---,0.00,VWS V14.01,2013-08-06 15:38:00,
2013-08-06 11:43:00,81.1,76.2,29.59,SSE,155,0.0,3.0,85,0.00,,---,0.00,VWS V14.01,2013-08-06 15:43:00,
2013-08-06 11:48:00,81.6,76.3,29.59,SW,225,1.0,3.0,84,0.00,,---,0.00,VWS V14.01,2013-08-06 15:48:00,
2013-08-06 11:53:00,81.6,75.9,29.59,SW,221,0.0,3.0,83,0.00,,---,0.00,VWS V14.01,2013-08-06 15:53:00,
2013-08-06 11:58:00,81.8,76.1,29.59,SSW,198,2.0,5.0,83,0.00,,---,0.00,VWS V14.01,2013-08-06 15:58:00,
2013-08-06 12:00:00,82.0,76.3,29.58,NW,325,0.0,5.0,83,0.00,,---,0.00,VWS V14.01,2013-08-06 16:00:00,
2013-08-06 12:03:00,82.3,76.6,29.58,SW,221,0.0,1.0,83,0.00,,---,0.00,VWS V14.01,2013-08-06 16:03:00,
2013-08-06 12:08:00,82.6,76.2,29.58,ESE,123,3.0,6.0,81,0.00,,---,0.00,VWS V14.01,2013-08-06 16:08:00,
2013-08-06 12:13:00,82.8,76.8,29.59,SE,130,6.0,6.0,82,0.00,,---,0.00,VWS V14.01,2013-08-06 16:13:00,
2013-08-06 12:18:00,82.8,76.4,29.58,SSE,152,0.0,6.0,81,0.00,,---,0.00,VWS V14.01,2013-08-06 16:18:00,
2013-08-06 12:23:00,83.2,76.4,29.58,SE,129,5.0,10.0,80,0.00,,---,0.00,VWS V14.01,2013-08-06 16:23:00,
2013-08-06 12:28:00,83.1,76.3,29.58,SSE,163,2.0,10.0,80,0.00,,---,0.00,VWS V14.01,2013-08-06 16:28:00,
2013-08-06 12:30:00,83.2,76.0,29.58,SW,231,2.0,10.0,79,0.00,,---,0.00,VWS V14.01,2013-08-06 16:30:00,
2013-08-06 12:33:00,83.2,76.0,29.58,WSW,243,2.0,4.0,79,0.00,,---,0.00,VWS V14.01,2013-08-06 16:33:00,
2013-08-06 12:38:00,83.3,76.1,29.58,SSE,165,4.0,4.0,79,0.00,,---,0.00,VWS V14.01,2013-08-06 16:38:00,
2013-08-06 12:43:00,83.8,75.8,29.58,SSW,196,3.0,4.0,77,0.00,,---,0.00,VWS V14.01,2013-08-06 16:43:00,
2013-08-06 12:48:00,83.9,75.9,29.58,SE,146,2.0,5.0,77,0.00,,---,0.00,VWS V14.01,2013-08-06 16:48:00,
2013-08-06 12:53:00,83.8,75.8,29.58,ESE,113,3.0,5.0,77,0.00,,---,0.00,VWS V14.01,2013-08-06 16:53:00,
2013-08-06 12:58:00,83.5,75.9,29.58,ESE,123,2.0,5.0,78,0.00,,---,0.00,VWS V14.01,2013-08-06 16:58:00,
2013-08-06 13:00:00,83.6,76.0,29.58,SSE,151,2.0,5.0,78,0.00,,---,0.00,VWS V14.01,2013-08-06 17:00:00,
2013-08-06 13:03:00,83.7,76.1,29.58,SE,144,4.0,5.0,78,0.00,,---,0.00,VWS V14.01,2013-08-06 17:03:00,
2013-08-06 13:08:00,83.7,76.1,29.58,WSW,251,3.0,5.0,78,0.00,,---,0.00,VWS V14.01,2013-08-06 17:08:00,
2013-08-06 13:13:00,83.4,76.2,29.58,WSW,254,2.0,5.0,79,0.00,,---,0.00,VWS V14.01,2013-08-06 17:13:00,
2013-08-06 13:18:00,83.8,76.2,29.58,WSW,248,1.0,5.0,78,0.00,,---,0.00,VWS V14.01,2013-08-06 17:18:00,
2013-08-06 13:23:00,83.9,75.9,29.58,West,281,2.0,5.0,77,0.00,,---,0.00,VWS V14.01,2013-08-06 17:23:00,
2013-08-06 13:27:00,84.1,76.1,29.58,WNW,290,0.0,5.0,77,0.00,,---,0.00,VWS V14.01,2013-08-06 17:27:00,
2013-08-06 13:30:00,84.9,76.5,29.58,NNW,330,0.0,5.0,76,0.00,,---,0.00,VWS V14.01,2013-08-06 17:30:00,
2013-08-06 13:32:00,85.0,76.6,29.58,NNE,18,2.0,2.0,76,0.00,,---,0.00,VWS V14.01,2013-08-06 17:32:00,
2013-08-06 13:37:00,85.0,76.2,29.58,South,169,1.0,3.0,75,0.00,,---,0.00,VWS V14.01,2013-08-06 17:37:00,
2013-08-06 13:42:00,85.0,76.2,29.57,SSE,166,2.0,7.0,75,0.00,,---,0.00,VWS V14.01,2013-08-06 17:42:00,
2013-08-06 13:47:00,85.6,76.4,29.57,SSE,168,2.0,7.0,74,0.00,,---,0.00,VWS V14.01,2013-08-06 17:47:00,
2013-08-06 13:52:00,85.8,76.6,29.57,SW,231,2.0,7.0,74,0.00,,---,0.00,VWS V14.01,2013-08-06 17:52:00,
2013-08-06 13:57:00,86.0,76.3,29.57,East,86,0.0,7.0,73,0.00,,---,0.00,VWS V14.01,2013-08-06 17:57:00,
2013-08-06 14:00:00,86.4,76.7,29.57,SE,146,4.0,7.0,73,0.00,,---,0.00,VWS V14.01,2013-08-06 18:00:00,
2013-08-06 14:02:00,86.1,76.0,29.57,SE,140,4.0,5.0,72,0.00,,---,0.00,VWS V14.01,2013-08-06 18:02:00,
2013-08-06 14:07:00,85.9,76.2,29.57,ESE,122,2.0,5.0,73,0.00,,---,0.00,VWS V14.01,2013-08-06 18:07:00,
2013-08-06 14:12:00,85.8,75.7,29.57,ESE,105,4.0,5.0,72,0.00,,---,0.00,VWS V14.01,2013-08-06 18:12:00,
2013-08-06 14:17:00,85.3,75.2,29.57,ESE,108,2.0,5.0,72,0.00,,---,0.00,VWS V14.01,2013-08-06 18:17:00,
2013-08-06 14:22:00,84.9,75.3,29.57,ESE,103,1.0,5.0,73,0.00,,---,0.00,VWS V14.01,2013-08-06 18:22:00,
2013-08-06 14:27:00,85.3,75.7,29.56,NNE,28,1.0,5.0,73,0.00,,---,0.00,VWS V14.01,2013-08-06 18:27:00,
2013-08-06 14:30:00,85.6,75.1,29.56,NNE,21,0.0,5.0,71,0.00,,---,0.00,VWS V14.01,2013-08-06 18:30:00,
2013-08-06 14:32:00,85.5,75.4,29.56,NNE,23,1.0,1.0,72,0.00,,---,0.00,VWS V14.01,2013-08-06 18:32:00,
2013-08-06 14:37:00,85.7,75.6,29.56,SE,139,1.0,2.0,72,0.00,,---,0.00,VWS V14.01,2013-08-06 18:37:00,
2013-08-06 14:42:00,85.7,75.2,29.56,SE,135,4.0,5.0,71,0.00,,---,0.00,VWS V14.01,2013-08-06 18:42:00,
2013-08-06 14:47:00,85.6,75.1,29.56,ENE,70,5.0,7.0,71,0.00,,---,0.00,VWS V14.01,2013-08-06 18:47:00,
2013-08-06 14:52:00,85.9,75.8,29.56,East,96,5.0,7.0,72,0.00,,---,0.00,VWS V14.01,2013-08-06 18:52:00,
2013-08-06 14:57:00,85.7,74.8,29.55,East,99,2.0,7.0,70,0.00,,---,0.00,VWS V14.01,2013-08-06 18:57:00,
2013-08-06 15:00:00,85.6,75.1,29.55,ENE,59,1.0,7.0,71,0.00,,---,0.00,VWS V14.01,2013-08-06 19:00:00,
2013-08-06 15:02:00,85.7,74.8,29.55,NE,53,0.0,1.0,70,0.00,,---,0.00,VWS V14.01,2013-08-06 19:02:00,
2013-08-06 15:07:00,86.6,74.8,29.55,NW,317,0.0,2.0,68,0.00,,---,0.00,VWS V14.01,2013-08-06 19:07:00,
2013-08-06 15:12:00,87.5,74.3,29.55,West,277,2.0,2.0,65,0.00,,---,0.00,VWS V14.01,2013-08-06 19:12:00,
2013-08-06 15:17:00,87.1,73.9,29.55,ESE,114,1.0,3.0,65,0.00,,---,0.00,VWS V14.01,2013-08-06 19:17:00,
2013-08-06 15:22:00,86.8,75.0,29.54,NNE,18,1.0,7.0,68,0.00,,---,0.00,VWS V14.01,2013-08-06 19:22:00,
2013-08-06 15:27:00,86.8,74.5,29.54,ESE,105,7.0,7.0,67,0.00,,---,0.00,VWS V14.01,2013-08-06 19:27:00,
2013-08-06 15:30:00,86.4,74.2,29.54,ENE,63,0.0,7.0,67,0.00,,---,0.00,VWS V14.01,2013-08-06 19:30:00,
2013-08-06 15:32:00,86.4,74.6,29.54,ENE,67,2.0,2.0,68,0.00,,---,0.00,VWS V14.01,2013-08-06 19:32:00,
2013-08-06 15:37:00,87.0,74.7,29.54,NE,37,2.0,4.0,67,0.00,,---,0.00,VWS V14.01,2013-08-06 19:37:00,
2013-08-06 15:42:00,87.1,74.4,29.54,ENE,61,3.0,5.0,66,0.00,,---,0.00,VWS V14.01,2013-08-06 19:42:00,
2013-08-06 15:47:00,87.1,73.9,29.54,ENE,72,5.0,7.0,65,0.00,,---,0.00,VWS V14.01,2013-08-06 19:47:00,
2013-08-06 15:52:00,87.5,72.9,29.54,NNE,33,0.0,9.0,62,0.00,,---,0.00,VWS V14.01,2013-08-06 19:52:00,
2013-08-06 15:57:00,87.8,72.7,29.53,ESE,117,2.0,9.0,61,0.00,,---,0.00,VWS V14.01,2013-08-06 19:57:00,
2013-08-06 16:00:00,88.1,72.5,29.53,NW,313,1.0,9.0,60,0.00,,---,0.00,VWS V14.01,2013-08-06 20:00:00,
2013-08-06 16:02:00,88.4,73.2,29.53,ENE,59,3.0,4.0,61,0.00,,---,0.00,VWS V14.01,2013-08-06 20:02:00,
2013-08-06 16:07:00,88.1,71.5,29.54,East,81,1.0,6.0,58,0.00,,---,0.00,VWS V14.01,2013-08-06 20:07:00,
2013-08-06 16:12:00,88.2,69.5,29.53,ESE,107,2.0,6.0,54,0.00,,---,0.00,VWS V14.01,2013-08-06 20:12:00,
2013-08-06 16:17:00,88.4,70.7,29.53,ENE,68,2.0,6.0,56,0.00,,---,0.00,VWS V14.01,2013-08-06 20:17:00,
2013-08-06 16:22:00,88.9,68.4,29.53,NW,313,1.0,6.0,51,0.00,,---,0.00,VWS V14.01,2013-08-06 20:22:00,
2013-08-06 16:27:00,89.0,69.7,29.53,NW,304,3.0,6.0,53,0.00,,---,0.00,VWS V14.01,2013-08-06 20:27:00,
2013-08-06 16:30:00,89.0,68.0,29.53,WNW,296,2.0,6.0,50,0.00,,---,0.00,VWS V14.01,2013-08-06 20:30:00,
2013-08-06 16:32:00,89.1,69.8,29.53,NW,319,1.0,3.0,53,0.00,,---,0.00,VWS V14.01,2013-08-06 20:32:00,
2013-08-06 16:37:00,89.7,68.0,29.53,West,263,2.0,4.0,49,0.00,,---,0.00,VWS V14.01,2013-08-06 20:37:00,
2013-08-06 16:42:00,89.8,69.3,29.53,SW,217,2.0,4.0,51,0.00,,---,0.00,VWS V14.01,2013-08-06 20:42:00,
2013-08-06 16:47:00,90.4,69.2,29.53,WSW,244,1.0,4.0,50,0.00,,---,0.00,VWS V14.01,2013-08-06 20:47:00,
2013-08-06 16:52:00,91.1,68.7,29.53,SW,223,2.0,4.0,48,0.00,,---,0.00,VWS V14.01,2013-08-06 20:52:00,
2013-08-06 16:57:00,91.5,69.1,29.53,South,178,1.0,4.0,48,0.00,,---,0.00,VWS V14.01,2013-08-06 20:57:00,
2013-08-06 17:00:00,92.0,69.5,29.52,SW,235,1.0,4.0,48,0.00,,---,0.00,VWS V14.01,2013-08-06 21:00:00,
2013-08-06 17:02:00,92.1,70.8,29.52,SE,129,2.0,2.0,50,0.00,,---,0.00,VWS V14.01,2013-08-06 21:02:00,
2013-08-06 17:07:00,91.9,72.3,29.52,SE,136,5.0,8.0,53,0.00,,---,0.00,VWS V14.01,2013-08-06 21:07:00,
2013-08-06 17:12:00,90.7,71.2,29.52,East,97,7.0,8.0,53,0.00,,---,0.00,VWS V14.01,2013-08-06 21:12:00,
2013-08-06 17:17:00,89.9,71.6,29.52,ESE,111,3.0,8.0,55,0.00,,---,0.00,VWS V14.01,2013-08-06 21:17:00,
2013-08-06 17:22:00,89.5,71.2,29.52,East,90,7.0,9.0,55,0.00,,---,0.00,VWS V14.01,2013-08-06 21:22:00,
2013-08-06 17:27:00,89.3,71.6,29.52,ESE,118,3.0,9.0,56,0.00,,---,0.00,VWS V14.01,2013-08-06 21:27:00,
2013-08-06 17:30:00,89.2,70.9,29.52,ESE,105,4.0,9.0,55,0.00,,---,0.00,VWS V14.01,2013-08-06 21:30:00,
2013-08-06 17:32:00,89.2,70.9,29.52,SE,143,6.0,7.0,55,0.00,,---,0.00,VWS V14.01,2013-08-06 21:32:00,
2013-08-06 17:37:00,89.4,70.6,29.52,ESE,121,5.0,8.0,54,0.00,,---,0.00,VWS V14.01,2013-08-06 21:37:00,
2013-08-06 17:42:00,89.2,70.4,29.52,ESE,113,3.0,8.0,54,0.00,,---,0.00,VWS V14.01,2013-08-06 21:42:00,
2013-08-06 17:47:00,89.0,71.8,29.52,SSE,148,3.0,8.0,57,0.00,,---,0.00,VWS V14.01,2013-08-06 21:47:00,
2013-08-06 17:52:00,88.9,72.2,29.52,SE,144,4.0,8.0,58,0.00,,---,0.00,VWS V14.01,2013-08-06 21:52:00,
2013-08-06 17:57:00,88.7,73.0,29.52,ESE,117,4.0,8.0,60,0.00,,---,0.00,VWS V14.01,2013-08-06 21:57:00,
2013-08-06 18:00:00,88.3,72.7,29.52,SE,137,5.0,8.0,60,0.00,,---,0.00,VWS V14.01,2013-08-06 22:00:00,
2013-08-06 18:02:00,88.2,72.6,29.52,SE,142,4.0,5.0,60,0.00,,---,0.00,VWS V14.01,2013-08-06 22:02:00,
2013-08-06 18:07:00,88.5,72.8,29.52,ESE,114,7.0,7.0,60,0.00,,---,0.00,VWS V14.01,2013-08-06 22:07:00,
2013-08-06 18:12:00,88.2,73.6,29.52,East,83,3.0,7.0,62,0.00,,---,0.00,VWS V14.01,2013-08-06 22:12:00,
2013-08-06 18:17:00,88.2,72.6,29.52,ESE,119,3.0,7.0,60,0.00,,---,0.00,VWS V14.01,2013-08-06 22:17:00,
2013-08-06 18:22:00,88.2,72.6,29.52,SE,131,3.0,7.0,60,0.00,,---,0.00,VWS V14.01,2013-08-06 22:22:00,
2013-08-06 18:27:00,88.4,72.8,29.52,ESE,107,2.0,7.0,60,0.00,,---,0.00,VWS V14.01,2013-08-06 22:27:00,
2013-08-06 18:30:00,88.5,71.8,29.52,SSE,148,2.0,7.0,58,0.00,,---,0.00,VWS V14.01,2013-08-06 22:30:00,
2013-08-06 18:32:00,88.6,72.4,29.52,East,94,2.0,2.0,59,0.00,,---,0.00,VWS V14.01,2013-08-06 22:32:00,
2013-08-06 18:37:00,88.7,72.5,29.52,SE,128,4.0,5.0,59,0.00,,---,0.00,VWS V14.01,2013-08-06 22:37:00,
2013-08-06 18:42:00,88.5,72.3,29.52,ESE,105,3.0,5.0,59,0.00,,---,0.00,VWS V14.01,2013-08-06 22:42:00,
2013-08-06 18:47:00,88.1,73.0,29.52,SE,127,4.0,5.0,61,0.00,,---,0.00,VWS V14.01,2013-08-06 22:47:00,
2013-08-06 18:52:00,87.9,72.3,29.52,SE,128,5.0,5.0,60,0.00,,---,0.00,VWS V14.01,2013-08-06 22:52:00,
2013-08-06 18:57:00,87.9,72.3,29.52,SE,139,5.0,5.0,60,0.00,,---,0.00,VWS V14.01,2013-08-06 22:57:00,
2013-08-06 19:00:00,87.9,71.8,29.52,ESE,120,4.0,5.0,59,0.00,,---,0.00,VWS V14.01,2013-08-06 23:00:00,
2013-08-06 19:02:00,87.8,71.7,29.52,ESE,118,7.0,7.0,59,0.00,,---,0.00,VWS V14.01,2013-08-06 23:02:00,
2013-08-06 19:07:00,87.7,71.6,29.52,SE,130,2.0,7.0,59,0.00,,---,0.00,VWS V14.01,2013-08-06 23:07:00,
2013-08-06 19:12:00,87.6,72.0,29.53,ESE,109,4.0,7.0,60,0.00,,---,0.00,VWS V14.01,2013-08-06 23:12:00,
2013-08-06 19:17:00,87.5,71.9,29.52,SE,136,4.0,7.0,60,0.00,,---,0.00,VWS V14.01,2013-08-06 23:17:00,
2013-08-06 19:22:00,87.3,72.2,29.52,SE,132,5.0,7.0,61,0.00,,---,0.00,VWS V14.01,2013-08-06 23:22:00,
2013-08-06 19:27:00,87.2,72.6,29.52,ESE,120,4.0,7.0,62,0.00,,---,0.00,VWS V14.01,2013-08-06 23:27:00,
2013-08-06 19:30:00,87.1,72.5,29.52,ESE,117,4.0,7.0,62,0.00,,---,0.00,VWS V14.01,2013-08-06 23:30:00,
2013-08-06 19:32:00,87.1,73.0,29.53,ESE,110,3.0,5.0,63,0.00,,---,0.00,VWS V14.01,2013-08-06 23:32:00,
2013-08-06 19:37:00,86.9,73.7,29.53,ESE,121,3.0,5.0,65,0.00,,---,0.00,VWS V14.01,2013-08-06 23:37:00,
2013-08-06 19:42:00,86.8,73.6,29.53,ESE,113,4.0,7.0,65,0.00,,---,0.00,VWS V14.01,2013-08-06 23:42:00,
2013-08-06 19:47:00,86.5,73.8,29.53,East,99,3.0,7.0,66,0.00,,---,0.00,VWS V14.01,2013-08-06 23:47:00,
2013-08-06 19:52:00,86.5,73.8,29.53,ESE,111,3.0,7.0,66,0.00,,---,0.00,VWS V14.01,2013-08-06 23:52:00,
2013-08-06 19:57:00,86.4,74.2,29.53,ENE,65,3.0,7.0,67,0.00,,---,0.00,VWS V14.01,2013-08-06 23:57:00,
2013-08-06 20:00:00,86.3,74.5,29.53,East,96,5.0,7.0,68,0.00,,---,0.00,VWS V14.01,2013-08-07 00:00:00,
2013-08-06 20:02:00,86.3,74.5,29.53,East,101,7.0,7.0,68,0.00,,---,0.00,VWS V14.01,2013-08-07 00:02:00,
2013-08-06 20:07:00,86.1,74.3,29.53,ESE,108,2.0,7.0,68,0.00,,---,0.00,VWS V14.01,2013-08-07 00:07:00,
2013-08-06 20:12:00,86.1,73.9,29.53,ESE,115,5.0,7.0,67,0.00,,---,0.00,VWS V14.01,2013-08-07 00:12:00,
2013-08-06 20:17:00,85.9,74.1,29.53,East,96,2.0,7.0,68,0.00,,---,0.00,VWS V14.01,2013-08-07 00:17:00,
2013-08-06 20:22:00,85.8,74.5,29.53,SE,135,3.0,7.0,69,0.00,,---,0.00,VWS V14.01,2013-08-07 00:22:00,
2013-08-06 20:27:00,85.6,74.7,29.53,ESE,111,2.0,7.0,70,0.00,,---,0.00,VWS V14.01,2013-08-07 00:27:00,
2013-08-06 20:30:00,85.4,74.9,29.53,SE,130,1.0,7.0,71,0.00,,---,0.00,VWS V14.01,2013-08-07 00:30:00,
2013-08-06 20:32:00,85.4,74.5,29.53,SE,128,2.0,3.0,70,0.00,,---,0.00,VWS V14.01,2013-08-07 00:32:00,
2013-08-06 20:37:00,85.1,74.6,29.54,ENE,73,2.0,4.0,71,0.00,,---,0.00,VWS V14.01,2013-08-07 00:37:00,
2013-08-06 20:42:00,85.0,75.0,29.54,ESE,112,2.0,4.0,72,0.00,,---,0.00,VWS V14.01,2013-08-07 00:42:00,
2013-08-06 20:47:00,84.8,74.8,29.55,SE,130,2.0,4.0,72,0.00,,---,0.00,VWS V14.01,2013-08-07 00:47:00,
2013-08-06 20:52:00,84.4,74.8,29.55,SE,136,1.0,4.0,73,0.00,,---,0.00,VWS V14.01,2013-08-07 00:52:00,
2013-08-06 20:57:00,84.2,75.0,29.55,ESE,115,1.0,4.0,74,0.00,,---,0.00,VWS V14.01,2013-08-07 00:57:00,
2013-08-06 21:00:00,84.0,75.2,29.55,ESE,120,2.0,4.0,75,0.00,,---,0.00,VWS V14.01,2013-08-07 01:00:00,
2013-08-06 21:02:00,84.0,75.2,29.55,ESE,117,2.0,2.0,75,0.00,,---,0.00,VWS V14.01,2013-08-07 01:02:00,
2013-08-06 21:07:00,83.7,75.3,29.55,ESE,117,1.0,3.0,76,0.00,,---,0.00,VWS V14.01,2013-08-07 01:07:00,
2013-08-06 21:12:00,83.5,75.5,29.55,ESE,109,0.0,3.0,77,0.00,,---,0.00,VWS V14.01,2013-08-07 01:12:00,
2013-08-06 21:16:00,83.5,75.5,29.56,East,101,1.0,3.0,77,0.00,,---,0.00,VWS V14.01,2013-08-07 01:16:00,
2013-08-06 21:21:00,83.2,75.6,29.57,ESE,105,8.0,10.0,78,0.00,,---,0.00,VWS V14.01,2013-08-07 01:21:00,
2013-08-06 21:26:00,82.5,75.7,29.57,SE,132,6.0,11.0,80,0.00,,---,0.00,VWS V14.01,2013-08-07 01:26:00,
2013-08-06 21:30:00,82.1,75.7,29.57,ESE,117,7.0,11.0,81,0.00,,---,0.00,VWS V14.01,2013-08-07 01:30:00,
2013-08-06 21:31:00,81.9,75.5,29.57,East,101,8.0,8.0,81,0.00,,---,0.00,VWS V14.01,2013-08-07 01:31:00,
2013-08-06 21:36:00,81.2,75.2,29.58,SE,127,4.0,11.0,82,0.00,,---,0.00,VWS V14.01,2013-08-07 01:36:00,
2013-08-06 21:41:00,80.9,75.3,29.58,ESE,112,8.0,12.0,83,0.00,,---,0.00,VWS V14.01,2013-08-07 01:41:00,
2013-08-06 21:46:00,80.7,74.7,29.58,SE,134,6.0,14.0,82,0.00,,---,0.00,VWS V14.01,2013-08-07 01:46:00,
2013-08-06 21:51:00,80.5,74.5,29.58,SE,128,5.0,14.0,82,0.00,,---,0.00,VWS V14.01,2013-08-07 01:51:00,
2013-08-06 21:56:00,80.3,74.3,29.58,SE,127,3.0,14.0,82,0.00,,---,0.00,VWS V14.01,2013-08-07 01:56:00,
2013-08-06 22:00:00,80.3,74.3,29.58,SE,144,6.0,14.0,82,0.00,,---,0.00,VWS V14.01,2013-08-07 02:00:00,
2013-08-06 22:01:00,80.3,74.3,29.58,SE,144,6.0,6.0,82,0.00,,---,0.00,VWS V14.01,2013-08-07 02:01:00,
2013-08-06 22:06:00,80.3,74.3,29.58,SE,144,6.0,6.0,82,0.00,,---,0.00,VWS V14.01,2013-08-07 02:06:00,
2013-08-06 22:11:00,80.0,74.0,29.58,SSE,151,3.0,8.0,82,0.00,,---,0.00,VWS V14.01,2013-08-07 02:11:00,
2013-08-06 22:16:00,80.0,74.0,29.58,SE,127,5.0,8.0,82,0.00,,---,0.00,VWS V14.01,2013-08-07 02:16:00,
2013-08-06 22:21:00,79.9,73.9,29.58,ESE,117,5.0,8.0,82,0.00,,---,0.00,VWS V14.01,2013-08-07 02:21:00,
2013-08-06 22:26:00,79.7,74.1,29.58,ESE,123,4.0,8.0,83,0.00,,---,0.00,VWS V14.01,2013-08-07 02:26:00,
2013-08-06 22:30:00,79.6,73.6,29.58,ESE,117,3.0,8.0,82,0.00,,---,0.00,VWS V14.01,2013-08-07 02:30:00,
2013-08-06 22:31:00,79.6,73.6,29.58,SE,127,5.0,5.0,82,0.00,,---,0.00,VWS V14.01,2013-08-07 02:31:00,
2013-08-06 22:36:00,79.5,73.5,29.58,SE,131,7.0,11.0,82,0.00,,---,0.00,VWS V14.01,2013-08-07 02:36:00,
2013-08-06 22:41:00,79.2,73.2,29.58,SE,138,7.0,11.0,82,0.00,,---,0.00,VWS V14.01,2013-08-07 02:41:00,
2013-08-06 22:46:00,79.1,73.1,29.58,SE,125,4.0,11.0,82,0.00,,---,0.00,VWS V14.01,2013-08-07 02:46:00,
2013-08-06 22:51:00,79.0,73.4,29.58,East,96,5.0,11.0,83,0.00,,---,0.00,VWS V14.01,2013-08-07 02:51:00,
2013-08-06 22:56:00,78.9,73.3,29.58,ENE,77,5.0,11.0,83,0.00,,---,0.00,VWS V14.01,2013-08-07 02:56:00,
2013-08-06 23:00:00,78.9,73.7,29.59,ESE,114,3.0,11.0,84,0.00,,---,0.00,VWS V14.01,2013-08-07 03:00:00,
2013-08-06 23:01:00,78.8,73.6,29.58,East,90,2.0,5.0,84,0.00,,---,0.00,VWS V14.01,2013-08-07 03:01:00,
2013-08-06 23:06:00,78.7,73.5,29.59,East,80,2.0,5.0,84,0.00,,---,0.00,VWS V14.01,2013-08-07 03:06:00,
2013-08-06 23:11:00,78.6,73.7,29.58,SE,132,3.0,5.0,85,0.00,,---,0.00,VWS V14.01,2013-08-07 03:11:00,
2013-08-06 23:16:00,78.4,73.5,29.58,ESE,106,3.0,5.0,85,0.00,,---,0.00,VWS V14.01,2013-08-07 03:16:00,
2013-08-06 23:21:00,78.3,73.8,29.58,East,91,3.0,5.0,86,0.00,,---,0.00,VWS V14.01,2013-08-07 03:21:00,
2013-08-06 23:26:00,78.2,73.7,29.58,ESE,113,2.0,5.0,86,0.00,,---,0.00,VWS V14.01,2013-08-07 03:26:00,
2013-08-06 23:30:00,78.0,73.5,29.58,ESE,113,4.0,7.0,86,0.00,,---,0.00,VWS V14.01,2013-08-07 03:30:00,
2013-08-06 23:31:00,78.0,73.5,29.58,ESE,123,4.0,5.0,86,0.00,,---,0.00,VWS V14.01,2013-08-07 03:31:00,
2013-08-06 23:36:00,77.8,73.6,29.58,ESE,121,3.0,5.0,87,0.00,,---,0.00,VWS V14.01,2013-08-07 03:36:00,
2013-08-06 23:41:00,77.7,73.5,29.58,ESE,119,4.0,5.0,87,0.00,,---,0.00,VWS V14.01,2013-08-07 03:41:00,
2013-08-06 23:46:00,77.6,73.8,29.58,East,90,3.0,5.0,88,0.00,,---,0.00,VWS V14.01,2013-08-07 03:46:00,
2013-08-06 23:51:00,77.5,73.7,29.58,ESE,105,1.0,5.0,88,0.00,,---,0.00,VWS V14.01,2013-08-07 03:51:00,
2013-08-06 23:56:00,77.4,73.6,29.58,ESE,110,3.0,5.0,88,0.00,,---,0.00,VWS V14.01,2013-08-07 03:56:00,